Regional Weather Roundup
Issued by NWS

Home | Current Version | Previous Version | Text Only | Print | Product List | Glossary Off
Versions: 1 2 3 4 5 6 7 8 9 10 11 12 13 14 15 16 17 18 19 20 21 22 23 24 25 26 27 28 29 30 31 32 33 34 35 36 37 38 39 40 41 42 43 44 45 46 47 48 49 50

000
ASUS43 KMPX 211110
RWRMN
WEATHER ROUNDUP FOR MINNESOTA
NATIONAL WEATHER SERVICE TWIN CITIES/CHANHASSEN MN
600 AM CDT TUE APR 21 2015


NOTE: "FAIR" INDICATES FEW OR NO CLOUDS BELOW 12,000 FEET WITH NO
SIGNIFICANT WEATHER AND/OR OBSTRUCTIONS TO VISIBILITY. N/A MEANS
CURRENT SKY AND/OR WEATHER CONDITIONS ARE NOT AVAILABLE.

MNZ060>063-068>070-211200-
   Twin Cities Metro

CITY           SKY/WX    TMP DP  RH WIND       PRES   REMARKS
TWIN CITIES    CLOUDY    35  24  64 NW25G35   29.54R WCI  23
ST PAUL        CLOUDY    35  24  64 NW25G39   29.54R WCI  23
CRYSTAL        CLOUDY    36  23  59 NW21G29   29.53R
BLAINE         CLOUDY    36  27  69 W21G32    29.52R
LAKEVILLE      CLOUDY    34  25  69 W26G35    29.53S WCI  21
EDEN PRAIRIE   CLOUDY    35  23  61 NW22G29   29.54R WCI  23
SOUTH ST PAUL  CLOUDY    37  25  64 NW16G25   29.53R
LAKE ELMO      CLOUDY    36  27  69 NW13G26   29.52R
$$
MNZ001>005-007-008-013>017-022>024-027-028-211200-
   Northwest Minnesota

CITY           SKY/WX    TMP DP  RH WIND       PRES   REMARKS
BEMIDJI        LGT SNOW  29  26  88 NW17      29.50R WCI  17
HALLOCK        LGT SNOW  32  28  86 N22G29    29.65R WCI  19
ROSEAU         LGT SNOW  30  25  80 N22G29    29.56R WCI  17
WARROAD        LGT SNOW  28  25  86 NW12      29.54R WCI  18
THIEF RVR FALL CLOUDY    30  27  86 NW17      29.59R WCI  18
CROOKSTON      FLURRIES  30  28  93 N28G33    29.63R WCI  16
FOSSTON        CLOUDY    28  25  86 NW15G21   29.57R WCI  17
DETROIT LAKES  MIX PCPN  32  30  93 NW14G24   29.58S WCI  22
MOORHEAD       DRIZZLE   32  28  86 NW16      29.65S WCI  21
PARK RAPIDS    LGT SNOW  31  26  82 NW13      29.50S WCI  21
MAHNOMEN       LGT SNOW  30  28  92 NW18G25   29.58R WCI  17
$$
MNZ006-009>011-018-025>026-211200-
   North Central Minnesota

CITY           SKY/WX    TMP DP  RH WIND       PRES   REMARKS
BAUDETTE       LGT SNOW  29  23  78 N14       29.48R WCI  18
FLAG ISLAND    LGT SNOW  28  25  86 N21       29.51R WCI  15
INTL FALLS     LGT SNOW  28  23  81 N17       29.41R WCI  16
WASKISH        CLOUDY    30  27  86 NW14G21   29.48R WCI  20
BIG FORK       LGT SNOW  30  27  86 NW7       29.41S WCI  23
LONGVILLE      FLURRIES  30  25  80 NW12G21   29.46S WCI  21
GRAND RAPIDS   CLOUDY    30  25  80 NW17      29.41S WCI  18
CRANE LAKE     CLOUDY    28  27  93 N10G16    29.36S WCI  19
ORR            LGT SNOW  28  27  93 NW14G21   29.34R WCI  17
COOK           LGT SNOW  28  28 100 W14       29.35S WCI  17
$$
MNZ012-019>021-037-211200-
   Northeast Minnesota

CITY           SKY/WX    TMP DP  RH WIND       PRES   REMARKS
DULUTH         LGT SNOW  31  26  82 W14G22    29.35S WCI  21
ELY            LGT SNOW  30  28  93 NW8G16    29.30S WCI  23
HIBBING        LGT SNOW  30  25  81 NW15      29.37S WCI  19
EVELETH        LGT SNOW  32  30  93 W13G18    29.36S WCI  22
DULUTH HARBOR  CLOUDY    36  28  75 W21       29.40R
TWO HARBORS    CLOUDY    36  28  75 W8        29.33R
SILVER BAY     CLOUDY    34  28  80 SW6       29.30R WCI  29
GRAND MARAIS     N/A     35  26  69 VRB3      29.27R
G MARAIS ARPRT CLOUDY    28  23  80 NW9       29.22R WCI  20
$$
MNZ029>031-032-039>041-046>048-054>057-064-211200-
   West Central Minnesota

CITY           SKY/WX    TMP DP  RH WIND       PRES   REMARKS
FERGUS FALLS   CLOUDY    32  25  74 NW18G26   29.65R WCI  20
WHEATON        CLOUDY    32  25  74 W18       29.68S WCI  20
MORRIS         CLOUDY    34  27  75 W18G24    29.63S WCI  23
ALEXANDRIA     CLOUDY    32  26  78 NW20G30   29.58S WCI  20
ELBOW LAKE     CLOUDY    32  28  86 NW21G26   29.62R WCI  20
WADENA         FLURRIES  30  25  80 NW16G24   29.53S WCI  19
GLENWOOD       CLOUDY    30  27  86 NW24G31   29.59S WCI  16
APPLETON       PTCLDY    36  25  64 W16       29.66S
BENSON         FLURRIES  34  27  75 NW16      29.63S WCI  23
ORTONVILLE     CLOUDY    34  25  69 NW16      29.67S WCI  23
MADISON        MOCLDY    34  25  69 NW13G20   29.68S WCI  25
WILLMAR        CLOUDY    34  28  80 NW16G25   29.62S WCI  23
$$
MNZ033>034-036-042>043-049>051-058-059-211200-
   Central Minnesota

CITY           SKY/WX    TMP DP  RH WIND       PRES   REMARKS
ST CLOUD       CLOUDY    33  23  66 W17G29    29.53F WCI  22
SAUK CENTRE    CLOUDY    32  25  76 W17G24    29.56F WCI  21
PAYNESVILLE    CLOUDY    31  23  73 W16G26    29.59S WCI  20
AITKIN         FLURRIES  34  27  75 W9G17     29.44S WCI  26
PINE RIVER     CLOUDY    30  25  80 NW10G18   29.52S WCI  21
BRAINERD       LGT SNOW  31  26  82 NW18G24   29.49S WCI  19
STAPLES        CLOUDY    30  27  86 W14G22    29.52S WCI  20
LONG PRAIRIE   CLOUDY    32  25  74 W18G26    29.55S WCI  20
LITTLE FALLS   FLURRIES  32  27  80 W16G25    29.52S WCI  21
LITCHFIELD     CLOUDY    36  27  69 NW22G32   29.59R
BUFFALO        CLOUDY    34  22  63 W17G25    29.57R WCI  23
MAPLE LAKE     CLOUDY    35  26  69 W16G28    29.56S WCI  25
$$
MNZ037-044-045-052-053-211200-
   East Central Minnesota

CITY           SKY/WX    TMP DP  RH WIND       PRES   REMARKS
PRINCETON      MOCLDY    34  25  69 W13       29.52R WCI  25
MORA           LGT SNOW  32  27  80 W13       29.50S WCI  22
CAMBRIDGE      CLOUDY    34  25  69 W14       29.49R WCI  24
RUSH CITY      CLOUDY    32  26  77 W9G16     29.49R WCI  24
MOOSE LAKE     LGT SNOW  32  28  86 CALM      29.42R
HINCKLEY       FLURRIES  32  30  93 W7        29.46S WCI  26
CLOQUET        LGT SNOW  30  27  86 W14       29.39R WCI  20
MCGREGOR       CLOUDY    32  28  86 W10G17    29.44S WCI  24
$$
MNZ071>073-080-081-089-090-097-098-211200-
   Southwest Minnesota

CITY           SKY/WX    TMP DP  RH WIND       PRES   REMARKS
MONTEVIDEO     CLOUDY    36  27  69 N17G24    29.66R
GRANITE FALLS  CLOUDY    33  26  77 W20G26    29.68R WCI  21
CANBY          PTCLDY    32  26  76 W16       29.71S WCI  21
MARSHALL       PTCLDY    34  19  55 NW26      29.68R WCI  21
REDWOOD FALLS  CLOUDY    35  27  72 W21G28    29.63S WCI  24
OLIVIA         CLOUDY    32  27  80 NW17G26   29.62R WCI  21
PIPESTONE      CLEAR     30  21  69 NW9       29.69R WCI  22
WINDOM         CLEAR     30  27  86 W9        29.65F WCI  22
WORTHINGTON    CLEAR     30  21  69 W15       29.68S WCI  19
JACKSON        CLEAR     32  27  80 W12       29.66S WCI  23
TRACY          CLEAR     33  26  75 NW23      29.68R WCI  21
SLAYTON        CLEAR     31  26  80 W15       29.68S WCI  20
$$
MNZ065>067-074>077-082>085-091>093-211200-
   South Central Minnesota

CITY           SKY/WX    TMP DP  RH WIND       PRES   REMARKS
MANKATO        CLOUDY    36  25  64 NW14G21   29.60S
NEW ULM        CLOUDY    34  27  75 W21G26    29.62S WCI  22
ST JAMES       CLEAR     36  28  75 W13       29.65R
FAIRMONT       PTCLDY    34  25  69 W15       29.64F WCI  24
GLENCOE        CLOUDY    35  30  80 W18G29    29.58R WCI  25
FARIBAULT      CLOUDY    36  28  75 W18G26    29.56S
OWATONNA       CLOUDY    36  27  69 W23G32    29.57S
WASECA         CLOUDY    37  30  75 W24G32    29.60S
ALBERT LEA     CLOUDY    36  28  75 W14G24    29.60S
$$
MNZ078>079-086>088-094>096-211200-
   Southeast Minnesota

CITY           SKY/WX    TMP DP  RH WIND       PRES   REMARKS
ROCHESTER      CLOUDY    35  29  78 W23G31    29.54S WCI  23
RED WING       CLOUDY    37  25  60 NW18G24   29.51S
STANTON        CLOUDY    37  29  75 W16G26    29.54R
DODGE CENTER   CLOUDY    36  30  80 W16       29.54S
WINONA         CLOUDY    37  28  70 NW14G20   29.53R
AUSTIN         CLOUDY    36  27  69 W21G33    29.58S
PRESTON        CLOUDY    34  28  79 W18G30    29.55S WCI  23
$$
ABBREVIATIONS USED IN REMARKS
   TC - TEMPERATURES IN CELSIUS
  WCI - WIND CHILL INDEX
   HX - HEAT INDEX
  VSB - VISIBILITY
$$


USA.gov is the U.S. government's official web portal to all federal, state and local government web resources and services.